• în Republica Moldova
  • Lista ţărilor
  • Pe 7 zile
  • Temperatura apei
  • Hartă satelitară
  • Meteo pe hartă
  • Widget-uri
  • user-avatar
    Intrare

    Meteo pe oră la Konstantyna

    Astăzi, 26 Septembrie, Miercuri

    Timp Temperatura Precipitaţii Vânt Presiune Umiditate
    00:00 +21°C° 0.1 mm 1 m/s 715 mmHg 81%
    01:00 +21°C° 0 mm 1 m/s 715 mmHg 83%
    02:00 +20°C° 0 mm 1 m/s 715 mmHg 84%
    03:00 +20°C° 0 mm 1 m/s 715 mmHg 85%
    04:00 +20°C° 0 mm 1 m/s 715 mmHg 85%
    05:00 +20°C° 0 mm 1 m/s 715 mmHg 85%
    06:00 +20°C° 0 mm 1 m/s 715 mmHg 85%
    07:00 +20°C° 0 mm 2 m/s 716 mmHg 77%
    08:00 +21°C° 0 mm 2 m/s 716 mmHg 69%
    09:00 +24°C° 0 mm 3 m/s 717 mmHg 61%
    10:00 +25°C° 0 mm 3 m/s 717 mmHg 57%
    11:00 +26°C° 0 mm 4 m/s 717 mmHg 53%
    12:00 +27°C° 0 mm 5 m/s 717 mmHg 49%
    13:00 +26°C° 0.1 mm 5 m/s 717 mmHg 51%
    14:00 +26°C° 0.1 mm 6 m/s 716 mmHg 53%
    15:00 +26°C° 0.1 mm 6 m/s 716 mmHg 55%
    16:00 +23°C° 0.1 mm 6 m/s 716 mmHg 59%
    17:00 +22°C° 0.1 mm 5 m/s 717 mmHg 62%
    18:00 +21°C° 0.1 mm 5 m/s 717 mmHg 65%
    19:00 +21°C° 0 mm 4 m/s 717 mmHg 67%
    20:00 +20°C° 0 mm 4 m/s 717 mmHg 68%
    21:00 +19°C° 0 mm 3 m/s 718 mmHg 70%
    22:00 +19°C° 0 mm 3 m/s 718 mmHg 71%
    23:00 +18°C° 0 mm 3 m/s 718 mmHg 71%

    Mâine, 27 Septembrie, Joi

    Timp Temperatura Precipitaţii Vânt Presiune Umiditate
    00:00 +18°C° 0 mm 3 m/s 717 mmHg 72%
    01:00 +17°C° 0 mm 2 m/s 717 mmHg 73%
    02:00 +17°C° 0 mm 2 m/s 717 mmHg 74%
    03:00 +16°C° 0 mm 2 m/s 717 mmHg 75%
    04:00 +16°C° 0 mm 2 m/s 717 mmHg 75%
    05:00 +16°C° 0 mm 2 m/s 717 mmHg 76%
    06:00 +15°C° 0 mm 2 m/s 717 mmHg 76%
    07:00 +17°C° 0 mm 2 m/s 717 mmHg 67%
    08:00 +18°C° 0 mm 2 m/s 718 mmHg 58%
    09:00 +20°C° 0 mm 2 m/s 718 mmHg 49%
    10:00 +21°C° 0 mm 2 m/s 718 mmHg 43%
    11:00 +22°C° 0 mm 3 m/s 718 mmHg 37%
    12:00 +25°C° 0 mm 3 m/s 717 mmHg 31%
    13:00 +25°C° 0 mm 3 m/s 717 mmHg 30%
    14:00 +25°C° 0 mm 3 m/s 716 mmHg 30%
    15:00 +26°C° 0 mm 4 m/s 716 mmHg 30%
    16:00 +24°C° 0 mm 3 m/s 716 mmHg 37%
    17:00 +22°C° 0 mm 3 m/s 715 mmHg 43%
    18:00 +21°C° 0 mm 3 m/s 715 mmHg 50%
    19:00 +20°C° 0 mm 2 m/s 715 mmHg 55%
    20:00 +19°C° 0 mm 2 m/s 715 mmHg 60%
    21:00 +19°C° 0 mm 2 m/s 715 mmHg 65%
    22:00 +19°C° 0 mm 1 m/s 715 mmHg 67%
    23:00 +19°C° 0 mm 1 m/s 714 mmHg 69%

    Poimâine, 28 Septembrie, Vineri

    Timp Temperatura Precipitaţii Vânt Presiune Umiditate
    00:00 +18°C° 0 mm 1 m/s 714 mmHg 71%
    01:00 +18°C° 0 mm 1 m/s 714 mmHg 72%
    02:00 +18°C° 0 mm 1 m/s 713 mmHg 73%
    03:00 +16°C° 0 mm 1 m/s 713 mmHg 73%
    04:00 +16°C° 0 mm 1 m/s 713 mmHg 73%
    05:00 +15°C° 0 mm 0 m/s 712 mmHg 73%
    06:00 +15°C° 0 mm 0 m/s 712 mmHg 72%
    07:00 +19°C° 0 mm 1 m/s 713 mmHg 62%
    08:00 +21°C° 0 mm 1 m/s 713 mmHg 52%
    09:00 +23°C° 0 mm 1 m/s 713 mmHg 42%
    10:00 +24°C° 0 mm 2 m/s 713 mmHg 36%
    11:00 +25°C° 0 mm 2 m/s 713 mmHg 30%
    12:00 +26°C° 0 mm 3 m/s 713 mmHg 25%
    13:00 +26°C° 0 mm 3 m/s 712 mmHg 26%
    14:00 +26°C° 0 mm 3 m/s 712 mmHg 27%
    15:00 +26°C° 0 mm 4 m/s 711 mmHg 28%
    16:00 +25°C° 0 mm 3 m/s 711 mmHg 35%
    17:00 +22°C° 0 mm 3 m/s 711 mmHg 42%
    18:00 +21°C° 0 mm 2 m/s 711 mmHg 49%
    19:00 +20°C° 0 mm 2 m/s 711 mmHg 54%
    20:00 +20°C° 0 mm 1 m/s 711 mmHg 59%
    21:00 +20°C° 0 mm 1 m/s 712 mmHg 64%
    22:00 +19°C° 0 mm 1 m/s 711 mmHg 65%
    23:00 +17°C° 0 mm 0 m/s 711 mmHg 67%

    29 Septembrie, Sâmbătă

    Timp Temperatura Precipitaţii Vânt Presiune Umiditate
    00:00 +16°C° 0 mm 0 m/s 711 mmHg 68%
    01:00 +16°C° 0 mm 0 m/s 710 mmHg 68%
    02:00 +16°C° 0 mm 0 m/s 710 mmHg 68%
    03:00 +15°C° 0 mm 0 m/s 710 mmHg 67%
    04:00 +15°C° 0 mm 0 m/s 710 mmHg 66%
    05:00 +15°C° 0 mm 0 m/s 710 mmHg 65%
    06:00 +15°C° 0 mm 0 m/s 710 mmHg 64%
    07:00 +19°C° 0 mm 1 m/s 710 mmHg 55%
    08:00 +22°C° 0 mm 1 m/s 711 mmHg 46%
    09:00 +24°C° 0 mm 1 m/s 711 mmHg 37%
    10:00 +25°C° 0 mm 2 m/s 711 mmHg 32%
    11:00 +26°C° 0 mm 2 m/s 711 mmHg 27%
    12:00 +27°C° 0 mm 3 m/s 711 mmHg 22%
    13:00 +27°C° 0 mm 3 m/s 711 mmHg 22%
    14:00 +27°C° 0 mm 3 m/s 711 mmHg 22%
    15:00 +27°C° 0 mm 3 m/s 711 mmHg 23%
    16:00 +26°C° 0 mm 3 m/s 711 mmHg 28%
    17:00 +24°C° 0 mm 2 m/s 711 mmHg 34%
    18:00 +23°C° 0 mm 2 m/s 711 mmHg 40%
    19:00 +22°C° 0 mm 1 m/s 711 mmHg 44%
    20:00 +21°C° 0 mm 1 m/s 711 mmHg 49%
    21:00 +18°C° 0 mm 0 m/s 711 mmHg 53%
    22:00 +20°C° 0 mm 1 m/s 711 mmHg 54%
    23:00 +19°C° 0 mm 1 m/s 711 mmHg 55%

    30 Septembrie, Duminică

    Timp Temperatura Precipitaţii Vânt Presiune Umiditate
    00:00 +19°C° 0 mm 1 m/s 711 mmHg 56%
    01:00 +19°C° 0 mm 1 m/s 710 mmHg 54%
    02:00 +19°C° 0 mm 1 m/s 710 mmHg 53%
    03:00 +18°C° 0 mm 1 m/s 710 mmHg 51%
    04:00 +18°C° 0 mm 1 m/s 710 mmHg 50%
    05:00 +18°C° 0 mm 1 m/s 710 mmHg 48%
    06:00 +18°C° 0 mm 1 m/s 710 mmHg 47%
    07:00 +21°C° 0 mm 1 m/s 710 mmHg 40%
    08:00 +23°C° 0 mm 1 m/s 711 mmHg 33%
    09:00 +25°C° 0 mm 1 m/s 711 mmHg 25%
    10:00 +26°C° 0 mm 1 m/s 711 mmHg 25%
    11:00 +27°C° 0 mm 2 m/s 711 mmHg 24%
    12:00 +28°C° 0 mm 3 m/s 711 mmHg 23%
    13:00 +28°C° 0 mm 3 m/s 711 mmHg 24%
    14:00 +28°C° 0 mm 3 m/s 711 mmHg 26%
    15:00 +28°C° 0 mm 4 m/s 710 mmHg 27%
    16:00 +27°C° 0 mm 3 m/s 710 mmHg 35%
    17:00 +25°C° 0 mm 3 m/s 710 mmHg 43%
    18:00 +23°C° 0 mm 2 m/s 710 mmHg 51%
    19:00 +23°C° 0 mm 2 m/s 710 mmHg 57%
    20:00 +22°C° 0 mm 1 m/s 711 mmHg 63%
    21:00 +19°C° 0 mm 0 m/s 711 mmHg 69%
    22:00 +19°C° 0 mm 0 m/s 710 mmHg 70%
    23:00 +18°C° 0 mm 0 m/s 710 mmHg 71%

    1 Octombrie, Luni

    Timp Temperatura Precipitaţii Vânt Presiune Umiditate
    00:00 +20°C° 0 mm 1 m/s 710 mmHg 72%
    01:00 +20°C° 0 mm 1 m/s 710 mmHg 72%
    02:00 +19°C° 0 mm 1 m/s 709 mmHg 71%
    03:00 +19°C° 0 mm 1 m/s 709 mmHg 70%
    04:00 +19°C° 0 mm 1 m/s 709 mmHg 68%
    05:00 +19°C° 0 mm 1 m/s 709 mmHg 66%
    06:00 +19°C° 0 mm 1 m/s 709 mmHg 64%
    07:00 +21°C° 0 mm 1 m/s 710 mmHg 54%
    08:00 +22°C° 0 mm 0 m/s 710 mmHg 44%
    09:00 +24°C° 0 mm 0 m/s 710 mmHg 34%
    10:00 +27°C° 0 mm 1 m/s 710 mmHg 31%
    11:00 +28°C° 0 mm 2 m/s 710 mmHg 29%
    12:00 +29°C° 0 mm 3 m/s 710 mmHg 26%
    13:00 +29°C° 0 mm 3 m/s 710 mmHg 26%
    14:00 +29°C° 0 mm 4 m/s 709 mmHg 27%
    15:00 +29°C° 0 mm 4 m/s 709 mmHg 27%
    16:00 +28°C° 0 mm 4 m/s 709 mmHg 34%
    17:00 +26°C° 0 mm 3 m/s 709 mmHg 41%
    18:00 +24°C° 0 mm 3 m/s 709 mmHg 47%
    19:00 +23°C° 0 mm 2 m/s 709 mmHg 52%
    20:00 +23°C° 0 mm 1 m/s 709 mmHg 56%
    21:00 +20°C° 0 mm 0 m/s 710 mmHg 61%
    22:00 +19°C° 0 mm 0 m/s 709 mmHg 61%
    23:00 +19°C° 0 mm 0 m/s 709 mmHg 62%
    Arată mai mult